sat.trackr.live / text

‹ back to catalog

STARLINK-34445

NORAD 64457 · 2025-130V

PAYLOAD ACTIVE UNKNOWN

§ Identity

Operator
Country
US
Launch date
2025-06-18
Launch site
AFETR
Launch vehicle
Mass (kg)
RCS (m²)

Purposes: comms

External: N2YO · Heavens-Above · Gunter

§ Orbital elements

Epoch: 2026-09-20T14:22:24.464064Z

Period
93.85 min
Inclination
53.1591°
Eccentricity
0.0000771
Mean motion
15.34405668 rev/d
Perigee alt
462.2 km
Apogee alt
463.2 km
Semi-major
6,840.8 km
B*
5.2728e-4
RAAN
259.0095°
Arg perigee
83.4835°
Mean anomaly
276.6255°
Rev number
7,060

§ Raw data

STARLINK-344451 64457U 25130V   26263.59889426  .00017484  00000+0  52728-3 0  99972 64457  53.1591 259.0095 0000771  83.4835 276.6255 15.34405668 70606

JSON: /api/v1/satellites/64457 · /tle

For live sub-satellite position, see the globe view (requires WebGL).

§ Visibility from observer

Set your observer location to see the next 7 days of passes ≥ 10°. The values pass through the URL so the page stays shareable.

No JS? Fill the form by hand. The geolocation button needs JavaScript.